Regional Weather Roundup
Issued by NWS Memphis, TN

Home | Current Version | Previous Version | Text Only | Print | Product List | Glossary On
Versions: 1 2 3 4 5 6 7 8 9 10 11 12 13 14 15 16 17 18 19 20 21 22 23 24 25 26 27 28 29 30 31 32 33 34 35 36 37 38 39 40 41 42 43 44 45 46 47 48 49 50
000
ASUS44 KMEG 261310
RWRMEG
MEMPHIS CWA HOURLY WEATHER ROUNDUP
NATIONAL WEATHER SERVICE MEMPHIS TN
800 AM CDT MON JUN 26 2017

...WEST TENNESSEE...

CITY           SKY/WX    TMP DP  RH WIND       PRES   REMARKS
MEMPHIS INTL   CLOUDY    70  65  84 CALM      30.21S
NWS MEMPHIS      N/A     67 N/A N/A MISG        N/A
JACKSON        MOSUNNY   66  63  90 CALM      30.20S
COVINGTON      MOSUNNY   68  64  88 CALM      30.20S
SOMERVILLE     PTSUNNY   66  63  88 CALM      30.20S
BOLIVAR        PTSUNNY   64  61  88 CALM      30.21R
LEXINGTON      SUNNY     63  63 100 CALM      30.21R
SELMER         SUNNY     66  63  88 CALM      30.21R
SAVANNAH       SUNNY     66  61  82 CALM      30.20S
UNION CITY     MOSUNNY   68  57  68 N5        30.21R
PARIS          MOSUNNY   66  57  72 CALM      30.21R
HUNTINGDON     SUNNY     68  59  73 E5        30.21R


...EASTERN ARKANSAS...

CITY           SKY/WX    TMP DP  RH WIND       PRES   REMARKS
JONESBORO      MOSUNNY   70  59  68 N6        30.21R
WEST MEMPHIS   CLOUDY    68  65  90 CALM      30.20S
BATESVILLE     CLOUDY    70  61  73 N5        30.24R
WALNUT RIDGE   PTSUNNY   68  57  68 N9        30.24R
BLYTHEVILLE    CLOUDY    70  60  70 NE7       30.21R
SEARCY         CLOUDY    71  65  81 CALM      30.23R
STUTTGART      CLOUDY    70  57  64 N6        30.21R
PINE BLUFF     CLOUDY    69  67  93 CALM      30.20S
MONTICELLO       N/A     72  66  81 CALM      30.19R


...NORTH MISSISSIPPI...

CITY           SKY/WX    TMP DP  RH WIND       PRES   REMARKS
TUPELO         SUNNY     69  58  67 CALM      30.21R
OXFORD         SUNNY     68  63  83 CALM      30.23R
BATESVILLE     CLOUDY    67  64  89 CALM      30.21R
OLIVE BRANCH   PTSUNNY  N/A N/A N/A CALM      30.21R
TUNICA           N/A     68  64  88 CALM      30.22S
CLARKSDALE       N/A     70  70 100 CALM      30.20R
CORINTH        SUNNY     64  61  88 CALM      30.22R
GREENWOOD      SUNNY     70  64  81 CALM      30.20R
COLUMBUS       MOSUNNY   64  64 100 CALM      30.20R
STARKVILLE     MOSUNNY   64  63  94 N3        30.22S
GOLDEN TRIANGL SUNNY     66  61  82 N5        30.17R


...SOUTHEAST MISSOURI...

CITY           SKY/WX    TMP DP  RH WIND       PRES   REMARKS
KENNETT        CLOUDY    70  61  73 N6        30.21S
MALDEN         CLOUDY    70  55  60 N3        30.25R
WEST PLAINS    HVY RAIN  63  57  81 W3        30.28R
POPLAR BLUFF   CLOUDY    65  60  84 NW5       30.24R
CAPE GIRARDEAU CLOUDY    65  58  78 SW3       30.23R


...NORTHWEST ALABAMA...

CITY           SKY/WX    TMP DP  RH WIND       PRES   REMARKS
MUSCLE SHOALS  SUNNY     66  59  78 W3        30.23R


...MIDDLE TENNESSEE...

CITY           SKY/WX    TMP DP  RH WIND       PRES   REMARKS
NASHVILLE      CLOUDY    68  56  65 NW6       30.22R
CLARKSVILLE    CLOUDY    66  57  72 N5        30.22R
COLUMBIA       SUNNY     64  59  82 CALM      30.20R


...WESTERN KENTUCKY...

CITY           SKY/WX    TMP DP  RH WIND       PRES   REMARKS
PADUCAH        PTSUNNY   70  53  54 CALM      30.23R
FORT CAMPBELL  CLOUDY    65  56  70 CALM      30.22R


...CENTRAL ARKANSAS...

CITY           SKY/WX    TMP DP  RH WIND       PRES   REMARKS
LITTLE ROCK    PTSUNNY   71  67  87 CALM      30.19S


SKY/WX REPORTED AS FAIR MEANS FEW OR NO CLOUDS BELOW
12 THOUSAND FEET.





USA.gov is the U.S. government's official web portal to all federal, state and local government web resources and services.